This is the latest recevied weather packets stored in our database for station/object WD4ITN. If no packets are shown the sender has not sent any weather packets the latest 10 day(s).
| Time | Temp. | Humidity | Pressure | Rain* | Wind** | Luminosity | Snow |
|---|---|---|---|---|---|---|---|
| 1777310010 | 17.22° C | 52% | 1021.3 hPa | 0 mm | - | - | - |
| 1777309694 | 16.67° C | 49% | 1021.4 hPa | 0 mm | - | - | - |
| 1777309413 | 16.67° C | 50% | 1021.4 hPa | 0 mm | - | - | - |
| 1777309107 | 16.67° C | 53% | 1021.3 hPa | 0 mm | - | - | - |
| 1777308807 | 16.67° C | 53% | 1021.4 hPa | 0 mm | - | - | - |
| 1777308496 | 16.11° C | 55% | 1021.4 hPa | 0 mm | - | - | - |
| 1777308214 | 15.56° C | 53% | 1021.6 hPa | 0 mm | - | - | - |
| 1777307910 | 16.11° C | 53% | 1021.6 hPa | 0 mm | - | - | - |
| 1777307611 | 15.56° C | 51% | 1021.8 hPa | 0 mm | - | - | - |
| 1777307304 | 15.56° C | 53% | 1021.8 hPa | 0 mm | - | - | - |
| 1777307005 | 15.56° C | 56% | 1021.8 hPa | 0 mm | - | - | - |
| 1777306702 | 15° C | 54% | 1021.8 hPa | 0 mm | - | - | - |
| 1777306398 | 15.56° C | 53% | 1021.8 hPa | 0 mm | - | - | - |
| 1777306100 | 15.56° C | 56% | 1021.8 hPa | 0 mm | - | - | - |
| 1777305822 | 15.56° C | 54% | 1021.8 hPa | 0 mm | - | - | - |
| 1777305509 | 14.44° C | 58% | 1021.9 hPa | 0 mm | - | - | - |
| 1777305207 | 14.44° C | 52% | 1021.9 hPa | 0 mm | - | - | - |
| 1777304902 | 15° C | 56% | 1021.8 hPa | 0 mm | - | - | - |
| 1777304605 | 14.44° C | 59% | 1021.9 hPa | 0 mm | - | - | - |
| 1777304301 | 13.89° C | 58% | 1021.9 hPa | 0 mm | - | - | - |
| 1777304005 | 13.89° C | 55% | 1021.9 hPa | 0 mm | - | - | - |
| 1777303702 | 13.89° C | 55% | 1022.1 hPa | 0 mm | - | - | - |
| 1777303418 | 13.89° C | 57% | 1022.1 hPa | 0 mm | - | - | - |
| 1777303110 | 13.89° C | 52% | 1022.2 hPa | 0 mm | - | - | - |
| 1777302807 | 13.89° C | 58% | 1022.2 hPa | 0 mm | - | - | - |
* Rain since midnight (hover to see other rain measurements)
** Current wind speed in m/s (hover to see current wind gust speed)